Zurück zum Katalog

STARLINK-5109

AktivKommunikationVLEO
NORAD 54002·PAYLOAD·🇺🇸 United States

Gestartet Oct 5, 2022 von Vandenberg Space Force Base

Loading…

Nächste Überflüge (nächste 24 Stunden)

TLE

AktuellSource: CelesTrak SupGP

Epoche: Sep 14, 2026, 20:47 UTC

1 54002C 22125AQ  26257.86645833  .00044930  00000+0  14452-2 0  2572
2 54002  53.1603  60.0026 0001256  79.9855 354.0765 15.31670825    11

Verfolge STARLINK-5109 in Echtzeit mit AllMySat

Download on the App Store